Garrison, ND

7:34 PM CDT on June 25, 2017 (GMT -0500)
Garrison

Weather History for KN60 - December, 2012

Change the Weather History Date:

Sunday, December 2, 2012

  Actual Average Record
Temperature  
Mean Temperature 33 °F -  
Max Temperature 42 °F - 50 °F (2001)
Min Temperature 24 °F - -11 °F (2006)
Degree Days  
Heating Degree Days 32    
Month to date heating degree days 66  
Cooling Degree Days 0    
Moisture  
Dew Point 32 °F    
Average Humidity 87    
Maximum Humidity 100    
Minimum Humidity 73    
Precipitation  
Precipitation 0.01 in - 0.50 in (2013)
Month to date precipitation 0.01  
Year to date precipitation 16.08  
Sea Level Pressure  
Sea Level Pressure 29.59 in    
Wind  
Wind Speed 6 mph (SSE)    
Max Wind Speed 12 mph    
Max Gust Speed -    
T = Trace of Precipitation, MM = Missing Value Source: NWS Daily Summary

Daily Weather History Graph

Daily Weather History Graph

Search for Another Location

Airport or City:

Trip Planner

Search our weather history database for the weather conditions in past years. The results will help you decide how hot, cold, wet, or windy it might be!

Date:

Astronomy

Dec. 02, 2012 Rise Set
Actual Time 8:15 AM CST 4:55 PM CST
Civil Twilight 7:39 AM CST 5:30 PM CST
Nautical Twilight 7:00 AM CST 6:09 PM CST
Astronomical Twilight 6:23 AM CST 6:46 PM CST
Moon 8:52 PM CST (12/2) 10:59 AM CST (12/2)
Length of Visible Light 9h 51m
Length of Day
8h 40m
Waning Gibbous, 85% of the Moon is Illuminated
Dec 2
Waning Gibbous
Dec 6
Last Quarter
Dec 13
New
Dec 19
First Quarter
Dec 28
Full

Hourly Weather History & Observations

Time (CST) Temp. Windchill Dew Point Humidity Pressure Visibility Wind Dir Wind Speed Gust Speed Precip Events Conditions
12:52 AM 34.0 °F 25.5 °F 34.0 °F 100% 29.80 in - SSE 11.5 mph - N/A   Unknown
1:52 AM 34.0 °F 26.0 °F 34.0 °F 100% 29.78 in - SSE 10.4 mph - N/A   Unknown
2:52 AM 33.1 °F 24.9 °F 33.1 °F 100% 29.78 in - South 10.4 mph - N/A   Unknown
3:52 AM 33.1 °F 25.5 °F 33.1 °F 100% 29.78 in - South 9.2 mph - N/A   Unknown
4:52 AM 32.0 °F 25.6 °F 32.0 °F 100% 29.77 in - South 6.9 mph - N/A   Unknown
5:52 AM 30.0 °F 23.2 °F 28.9 °F 96% 29.78 in - South 6.9 mph - N/A   Unknown
6:52 AM 30.0 °F - 28.0 °F 92% 29.76 in - Calm Calm - N/A   Unknown
7:52 AM 28.9 °F 25.2 °F 28.0 °F 96% 29.76 in - South 3.5 mph - N/A   Unknown
8:52 AM 26.1 °F - 25.0 °F 96% 29.75 in - Calm Calm - N/A   Unknown
9:52 AM 32.0 °F - 30.9 °F 96% 29.72 in - Calm Calm - N/A   Unknown
10:52 AM 34.0 °F 31.0 °F 34.0 °F 100% 29.70 in - ESE 3.5 mph - N/A   Unknown
11:52 AM 37.0 °F 33.3 °F 33.1 °F 86% 29.65 in - SSE 4.6 mph - 0.01 in   Unknown
12:52 PM 39.0 °F 35.7 °F 34.0 °F 82% 29.60 in - ESE 4.6 mph - N/A   Unknown
1:52 PM 42.1 °F 36.1 °F 37.0 °F 82% 29.53 in - ESE 10.4 mph - N/A   Unknown
2:52 PM 42.1 °F 37.1 °F 35.1 °F 76% 29.49 in - SE 8.1 mph - N/A   Unknown
3:52 PM 41.0 °F 35.8 °F 34.0 °F 76% 29.46 in - ESE 8.1 mph - N/A   Unknown
4:52 PM 37.0 °F 31.0 °F 32.0 °F 82% 29.44 in - ESE 8.1 mph - N/A   Unknown
5:52 PM 37.0 °F 34.5 °F 32.0 °F 82% 29.43 in - ESE 3.5 mph - N/A   Unknown
6:52 PM 37.9 °F - 34.0 °F 86% 29.40 in - Calm Calm - N/A   Unknown
7:52 PM 37.9 °F 33.5 °F 33.1 °F 83% 29.39 in - SSE 5.8 mph - N/A   Unknown
8:52 PM 39.0 °F 36.8 °F 34.0 °F 82% 29.37 in - SE 3.5 mph - N/A   Unknown
9:52 PM 35.1 °F 32.2 °F 32.0 °F 89% 29.35 in - SSE 3.5 mph - N/A   Unknown
10:52 PM 36.0 °F 33.3 °F 32.0 °F 86% 29.34 in - South 3.5 mph - N/A   Unknown
11:52 PM 36.0 °F 31.1 °F 30.9 °F 82% 29.34 in - West 5.8 mph - N/A   Unknown